| time (UTC) | temp F | wind direction | speed MPH | gust MPH | rain 1hr in | rain 24hr in | rain mn in | humidity % | barometer mb |
| 20260906234933 | 52 | 225 | 2.0 | 5.0 | 0.00 | 0.00 | 0.00 | 86 | 1086.3 |
| 20260906234832 | 52 | 270 | 2.0 | 5.0 | 0.00 | 0.00 | 0.00 | 86 | 1056.3 |
| 20260906234433 | 52 | 247 | 5.0 | 5.0 | 0.00 | 0.00 | 0.00 | 86 | 1064.0 |
| 20260906233933 | 53 | 247 | 3.0 | 5.0 | 0.00 | 0.00 | 0.00 | 86 | 1064.6 |
| 20260906233433 | 53 | 225 | 3.0 | 5.0 | 0.00 | 0.00 | 0.00 | 86 | 1062.7 |
| 20260906232933 | 53 | 270 | 2.0 | 6.0 | 0.00 | 0.00 | 0.00 | 86 | 1050.0 |
| 20260906232433 | 53 | 247 | 3.0 | 8.0 | 0.00 | 0.00 | 0.00 | 86 | 1053.3 |
| 20260906231933 | 53 | 180 | 3.0 | 6.0 | 0.00 | 0.00 | 0.00 | 85 | 1070.5 |
| 20260906231532 | 53 | 225 | 5.0 | 6.0 | 0.00 | 0.00 | 0.00 | 85 | 1072.8 |
| 20260906231433 | 53 | 247 | 4.0 | 5.0 | 0.00 | 0.00 | 0.00 | 85 | 1052.4 |
| 20260906230933 | 53 | 225 | 5.0 | 5.0 | 0.00 | 0.00 | 0.00 | 85 | 1051.7 |
| 20260906230433 | 53 | 202 | 0.0 | 7.0 | 0.00 | 0.00 | 0.00 | 85 | 1054.8 |
| 20260906225933 | 53 | 180 | 4.0 | 6.0 | 0.00 | 0.00 | 0.00 | 85 | 1053.6 |
| 20260906225433 | 53 | 225 | 4.0 | 5.0 | 0.00 | 0.00 | 0.00 | 84 | 1081.4 |
| 20260906224933 | 53 | 202 | 3.0 | 5.0 | 0.00 | 0.00 | 0.00 | 84 | 1057.4 |
| 20260906224433 | 53 | 202 | 2.0 | 4.0 | 0.00 | 0.00 | 0.00 | 84 | 1049.7 |
| 20260906224232 | 53 | 247 | 2.0 | 4.0 | 0.00 | 0.00 | 0.00 | 84 | 1050.2 |
| 20260906223933 | 53 | 225 | 2.0 | 3.0 | 0.00 | 0.00 | 0.00 | 84 | 1032.5 |
| 20260906223433 | 53 | 225 | 2.0 | 3.0 | 0.00 | 0.00 | 0.00 | 84 | 1052.4 |
| 20260906222933 | 54 | 202 | 0.0 | 2.0 | 0.00 | 0.00 | 0.00 | 84 | 1043.7 |
| 20260906222433 | 54 | 247 | 0.0 | 4.0 | 0.00 | 0.00 | 0.00 | 83 | 1048.5 |
| 20260906221933 | 54 | 270 | 0.0 | 4.0 | 0.00 | 0.00 | 0.00 | 83 | 1070.5 |
| 20260906221433 | 54 | 270 | 2.0 | 5.0 | 0.00 | 0.00 | 0.00 | 83 | 1024.0 |
| 20260906220932 | 54 | 180 | 1.0 | 5.0 | 0.00 | 0.00 | 0.00 | 83 | 1048.5 |
| 20260906220433 | 55 | 270 | 1.0 | 6.0 | 0.00 | 0.00 | 0.00 | 83 | 1059.5 |
| 20260906215933 | 55 | 270 | 3.0 | 5.0 | 0.00 | 0.00 | 0.00 | 83 | 1056.4 |
| 20260906215433 | 55 | 225 | 2.0 | 5.0 | 0.00 | 0.00 | 0.00 | 83 | 1072.1 |
| 20260906214933 | 55 | 225 | 3.0 | 10.0 | 0.00 | 0.00 | 0.00 | 82 | 1067.0 |
| 20260906214433 | 55 | 270 | 5.0 | 7.0 | 0.00 | 0.00 | 0.00 | 82 | 1081.6 |
| 20260906213934 | 55 | 225 | 2.0 | 4.0 | 0.00 | 0.00 | 0.00 | 81 | 1057.6 |
| 20260906213632 | 55 | 247 | 4.0 | 6.0 | 0.00 | 0.00 | 0.00 | 81 | 1075.2 |
| 20260906213433 | 55 | 202 | 3.0 | 6.0 | 0.00 | 0.00 | 0.00 | 81 | 1073.7 |
| 20260906212933 | 55 | 247 | 2.0 | 5.0 | 0.00 | 0.00 | 0.00 | 81 | 1050.1 |
| 20260906212433 | 55 | 247 | 3.0 | 5.0 | 0.00 | 0.00 | 0.00 | 81 | 1072.1 |
| 20260906211934 | 55 | 247 | 2.0 | 5.0 | 0.00 | 0.00 | 0.00 | 81 | 1067.4 |
| 20260906211433 | 56 | 247 | 5.0 | 5.0 | 0.00 | 0.00 | 0.00 | 80 | 1069.0 |
| 20260906210933 | 56 | 225 | 1.0 | 4.0 | 0.00 | 0.00 | 0.00 | 80 | 1075.2 |
| 20260906210433 | 56 | 225 | 2.0 | 5.0 | 0.00 | 0.00 | 0.00 | 80 | 1062.6 |
| 20260906210332 | 56 | 270 | 2.0 | 5.0 | 0.00 | 0.00 | 0.00 | 80 | 1059.4 |
| 20260906205933 | 56 | 202 | 3.0 | 5.0 | 0.00 | 0.00 | 0.00 | 80 | 1103.4 |
| 20260906205433 | 57 | 270 | 2.0 | 6.0 | 0.00 | 0.00 | 0.00 | 80 | 1046.9 |
| 20260906204933 | 57 | 270 | 6.0 | 8.0 | 0.00 | 0.00 | 0.00 | 79 | 1081.5 |
| 20260906204433 | 57 | 225 | 3.0 | 7.0 | 0.00 | 0.00 | 0.00 | 79 | 1059.5 |
| 20260906203933 | 57 | 225 | 4.0 | 7.0 | 0.00 | 0.00 | 0.00 | 79 | 1065.8 |
| 20260906203433 | 57 | 270 | 5.0 | 8.0 | 0.00 | 0.00 | 0.00 | 79 | 1067.4 |
| 20260906203032 | 57 | 225 | 4.0 | 8.0 | 0.00 | 0.00 | 0.00 | 78 | 1051.7 |
| 20260906202933 | 58 | 202 | 2.0 | 8.0 | 0.00 | 0.00 | 0.00 | 78 | 1054.5 |
| 20260906202433 | 58 | 202 | 5.0 | 9.0 | 0.00 | 0.00 | 0.00 | 78 | 1080.0 |
| 20260906201933 | 58 | 247 | 5.0 | 6.0 | 0.00 | 0.00 | 0.00 | 78 | 1034.1 |
| 20260906201433 | 58 | 270 | 3.0 | 10.0 | 0.00 | 0.00 | 0.00 | 77 | 1051.6 |
| 20260906200933 | 58 | 270 | 5.0 | 9.0 | 0.00 | 0.00 | 0.00 | 77 | 1072.0 |
| 20260906200433 | 59 | 247 | 4.0 | 9.0 | 0.00 | 0.00 | 0.00 | 77 | 1061.5 |
| 20260906195933 | 59 | 337 | 2.0 | 7.0 | 0.00 | 0.00 | 0.00 | 76 | 1058.0 |
| 20260906195732 | 59 | 247 | 5.0 | 7.0 | 0.00 | 0.00 | 0.00 | 76 | 1064.2 |
| 20260906195433 | 59 | 270 | 5.0 | 10.0 | 0.00 | 0.00 | 0.00 | 76 | 999.6 |
| 20260906194933 | 59 | 292 | 2.0 | 9.0 | 0.00 | 0.00 | 0.00 | 76 | 1016.2 |
| 20260906194433 | 60 | 270 | 8.0 | 9.0 | 0.00 | 0.00 | 0.00 | 75 | 1019.0 |
| 20260906193933 | 60 | 247 | 2.0 | 11.0 | 0.00 | 0.00 | 0.00 | 75 | 1084.6 |
| 20260906193433 | 60 | 270 | 7.0 | 11.0 | 0.00 | 0.00 | 0.00 | 75 | 1062.2 |
| 20260906192933 | 61 | 270 | 10.0 | 11.0 | 0.00 | 0.00 | 0.00 | 75 | 1072.1 |
| 20260906192432 | 61 | 270 | 3.0 | 14.0 | 0.00 | 0.00 | 0.00 | 75 | 1064.3 |
| 20260906191934 | 61 | 270 | 5.0 | 16.0 | 0.00 | 0.00 | 0.00 | 75 | 1034.3 |
| 20260906191433 | 62 | 247 | 7.0 | 13.0 | 0.00 | 0.00 | 0.00 | 75 | 1018.2 |
| 20260906190933 | 62 | 202 | 2.0 | 12.0 | 0.00 | 0.00 | 0.00 | 75 | 1051.6 |
| 20260906190434 | 62 | 270 | 2.0 | 12.0 | 0.00 | 0.00 | 0.00 | 75 | 1053.4 |
| 20260906185933 | 62 | 270 | 4.0 | 8.0 | 0.00 | 0.00 | 0.00 | 75 | 1033.3 |
| 20260906185433 | 62 | 270 | 6.0 | 10.0 | 0.00 | 0.00 | 0.00 | 75 | 1059.5 |
| 20260906185133 | 61 | 270 | 8.0 | 11.0 | 0.00 | 0.00 | 0.00 | 75 | 1067.7 |
| 20260906184933 | 62 | 270 | 7.0 | 11.0 | 0.00 | 0.00 | 0.00 | 75 | 1043.8 |
| 20260906184433 | 62 | 292 | 8.0 | 9.0 | 0.00 | 0.00 | 0.00 | 75 | 1059.6 |
| 20260906183934 | 62 | 270 | 6.0 | 8.0 | 0.00 | 0.00 | 0.00 | 75 | 1080.8 |
| 20260906183433 | 62 | 270 | 3.0 | 10.0 | 0.00 | 0.00 | 0.00 | 75 | 1034.3 |
| 20260906182934 | 62 | 270 | 4.0 | 12.0 | 0.00 | 0.00 | 0.00 | 75 | 1019.1 |
| 20260906182434 | 62 | 292 | 3.0 | 16.0 | 0.00 | 0.00 | 0.00 | 75 | 1026.2 |
| 20260906181934 | 62 | 225 | 13.0 | 13.0 | 0.00 | 0.00 | 0.00 | 75 | 1060.8 |
| 20260906181833 | 62 | 270 | 9.0 | 12.0 | 0.00 | 0.00 | 0.00 | 75 | 1059.2 |
| 20260906181434 | 62 | 292 | 4.0 | 12.0 | 0.00 | 0.00 | 0.00 | 75 | 1031.6 |
| 20260906180934 | 61 | 270 | 7.0 | 8.0 | 0.00 | 0.00 | 0.00 | 75 | 1054.8 |
| 20260906180434 | 61 | 247 | 2.0 | 8.0 | 0.00 | 0.00 | 0.00 | 75 | 1046.3 |
| 20260906175934 | 61 | 270 | 8.0 | 8.0 | 0.00 | 0.00 | 0.00 | 74 | 1061.1 |
| 20260906175434 | 61 | 270 | 8.0 | 8.0 | 0.00 | 0.00 | 0.00 | 74 | 1043.7 |
| 20260906174934 | 61 | 270 | 6.0 | 8.0 | 0.00 | 0.00 | 0.00 | 74 | 1014.2 |
| 20260906174533 | 61 | 225 | 4.0 | 8.0 | 0.00 | 0.00 | 0.00 | 74 | 1067.3 |
| 20260906174434 | 61 | 247 | 3.0 | 8.0 | 0.00 | 0.00 | 0.00 | 74 | 1064.2 |
| 20260906173934 | 61 | 247 | 5.0 | 9.0 | 0.00 | 0.00 | 0.00 | 74 | 1043.4 |
| 20260906173434 | 62 | 315 | 2.0 | 11.0 | 0.00 | 0.00 | 0.00 | 73 | 1064.3 |
| 20260906172934 | 62 | 247 | 3.0 | 8.0 | 0.00 | 0.00 | 0.00 | 73 | 1014.0 |
| 20260906172434 | 62 | 225 | 5.0 | 9.0 | 0.00 | 0.00 | 0.00 | 73 | 1057.2 |
| 20260906171934 | 62 | 202 | 2.0 | 9.0 | 0.00 | 0.00 | 0.00 | 73 | 1054.8 |
| 20260906171434 | 62 | 270 | 8.0 | 8.0 | 0.00 | 0.00 | 0.00 | 73 | 1046.2 |
| 20260906171233 | 62 | 247 | 3.0 | 8.0 | 0.00 | 0.00 | 0.00 | 72 | 1067.0 |
| 20260906170934 | 62 | 247 | 7.0 | 8.0 | 0.00 | 0.00 | 0.00 | 72 | 1039.1 |
| 20260906170434 | 62 | 270 | 8.0 | 14.0 | 0.00 | 0.00 | 0.00 | 72 | 1014.0 |
| 20260906165934 | 62 | 270 | 4.0 | 11.0 | 0.00 | 0.00 | 0.00 | 71 | 1049.2 |
| 20260906165434 | 63 | 270 | 8.0 | 12.0 | 0.00 | 0.00 | 0.00 | 70 | 1037.4 |
| 20260906164934 | 64 | 270 | 6.0 | 15.0 | 0.00 | 0.00 | 0.00 | 70 | 1018.3 |
| 20260906164434 | 64 | 270 | 5.0 | 12.0 | 0.00 | 0.00 | 0.00 | 70 | 1070.1 |
| 20260906163933 | 64 | 270 | 4.0 | 16.0 | 0.00 | 0.00 | 0.00 | 69 | 1022.1 |
| 20260906163434 | 65 | 292 | 9.0 | 18.0 | 0.00 | 0.00 | 0.00 | 69 | 1040.6 |
| 20260906162934 | 65 | 337 | 6.0 | 19.0 | 0.00 | 0.00 | 0.00 | 69 | 1068.9 |
| 20260906162434 | 65 | 270 | 6.0 | 15.0 | 0.00 | 0.00 | 0.00 | 69 | 1064.5 |
| 20260906161934 | 65 | 292 | 4.0 | 20.0 | 0.00 | 0.00 | 0.00 | 69 | 1053.3 |
| 20260906161434 | 65 | 180 | 6.0 | 21.0 | 0.00 | 0.00 | 0.00 | 69 | 1067.4 |
| 20260906160934 | 65 | 247 | 7.0 | 19.0 | 0.00 | 0.00 | 0.00 | 69 | 1019.3 |
| 20260906160633 | 65 | 270 | 8.0 | 17.0 | 0.00 | 0.00 | 0.00 | 69 | 1066.8 |
| 20260906160434 | 65 | 270 | 4.0 | 20.0 | 0.00 | 0.00 | 0.00 | 69 | 1022.5 |
| 20260906155934 | 65 | 270 | 11.0 | 17.0 | 0.00 | 0.00 | 0.00 | 68 | 1070.6 |
| 20260906155434 | 65 | 270 | 8.0 | 21.0 | 0.00 | 0.00 | 0.00 | 69 | 1058.0 |
| 20260906153434 | 64 | 270 | 7.0 | 18.0 | 0.00 | 0.00 | 0.00 | 71 | 1052.7 |
| 20260906153333 | 64 | 270 | 18.0 | 18.0 | 0.00 | 0.00 | 0.00 | 71 | 1049.4 |
| 20260906153041 | 64 | 292 | 9.0 | 19.0 | 0.00 | 0.00 | 0.00 | 71 | 1049.0 |
| 20260906152934 | 64 | 292 | 9.0 | 19.0 | 0.00 | 0.00 | 0.00 | 71 | 1049.0 |
| 20260906151934 | 66 | 247 | 10.0 | 16.0 | 0.00 | 0.00 | 0.00 | 70 | 1000.7 |
| 20260906151434 | 66 | 292 | 12.0 | 17.0 | 0.00 | 0.00 | 0.00 | 70 | 1040.6 |
| 20260906150434 | 65 | 270 | 8.0 | 18.0 | 0.00 | 0.00 | 0.00 | 71 | 1051.8 |
| 20260906150033 | 65 | 270 | 10.0 | 19.0 | 0.00 | 0.00 | 0.00 | 71 | 1010.8 |
| 20260906145934 | 65 | 247 | 9.0 | 19.0 | 0.00 | 0.00 | 0.00 | 71 | 1029.7 |
| 20260906145434 | 66 | 270 | 16.0 | 23.0 | 0.00 | 0.00 | 0.00 | 71 | 1054.4 |
| 20260906144934 | 66 | 292 | 12.0 | 21.0 | 0.00 | 0.00 | 0.00 | 71 | 1029.2 |
| 20260906144434 | 66 | 247 | 7.0 | 15.0 | 0.00 | 0.00 | 0.00 | 70 | 1062.0 |
| 20260906143934 | 66 | 270 | 4.0 | 16.0 | 0.00 | 0.00 | 0.00 | 68 | 1037.5 |
| 20260906143434 | 67 | 247 | 8.0 | 20.0 | 0.00 | 0.00 | 0.00 | 67 | 1046.9 |
| 20260906142934 | 67 | 270 | 17.0 | 23.0 | 0.00 | 0.00 | 0.00 | 64 | 1037.4 |
| 20260906142733 | 67 | 270 | 3.0 | 23.0 | 0.00 | 0.00 | 0.00 | 63 | 1021.6 |
| 20260906142434 | 68 | 247 | 15.0 | 17.0 | 0.00 | 0.00 | 0.00 | 63 | 1017.1 |
| 20260906141934 | 68 | 270 | 10.0 | 24.0 | 0.00 | 0.00 | 0.00 | 62 | 1037.5 |
| 20260906141434 | 69 | 270 | 17.0 | 17.0 | 0.00 | 0.00 | 0.00 | 61 | 1053.6 |
| 20260906140934 | 69 | 270 | 10.0 | 25.0 | 0.00 | 0.00 | 0.00 | 61 | 1050.1 |
| 20260906140434 | 69 | 270 | 12.0 | 17.0 | 0.00 | 0.00 | 0.00 | 60 | 1039.4 |
| 20260906135934 | 69 | 270 | 13.0 | 21.0 | 0.00 | 0.00 | 0.00 | 59 | 1048.8 |
| 20260906135433 | 69 | 270 | 9.0 | 17.0 | 0.00 | 0.00 | 0.00 | 60 | 1058.7 |
| 20260906134934 | 69 | 292 | 12.0 | 20.0 | 0.00 | 0.00 | 0.00 | 59 | 1046.9 |
| 20260906134434 | 69 | 292 | 6.0 | 21.0 | 0.00 | 0.00 | 0.00 | 60 | 1034.3 |
| 20260906133934 | 69 | 180 | 8.0 | 21.0 | 0.00 | 0.00 | 0.00 | 60 | 1050.1 |
| 20260906132934 | 68 | 270 | 27.0 | 28.0 | 0.00 | 0.00 | 0.00 | 61 | 1046.9 |
| 20260906132434 | 68 | 270 | 21.0 | 21.0 | 0.00 | 0.00 | 0.00 | 63 | 1024.8 |
| 20260906132133 | 68 | 247 | 10.0 | 23.0 | 0.00 | 0.00 | 0.00 | 62 | 1040.6 |
| 20260906131934 | 68 | 135 | 8.0 | 23.0 | 0.00 | 0.00 | 0.00 | 62 | 1035.9 |
| 20260906131434 | 68 | 247 | 16.0 | 20.0 | 0.00 | 0.00 | 0.00 | 62 | 1024.9 |
| 20260906130935 | 68 | 270 | 13.0 | 21.0 | 0.00 | 0.00 | 0.00 | 61 | 1053.2 |
| 20260906130434 | 68 | 292 | 11.0 | 19.0 | 0.00 | 0.00 | 0.00 | 62 | 1001.0 |
| 20260906125934 | 68 | 247 | 16.0 | 16.0 | 0.00 | 0.00 | 0.00 | 63 | 1046.9 |
| 20260906125434 | 67 | 247 | 13.0 | 21.0 | 0.00 | 0.00 | 0.00 | 64 | 1050.1 |
| 20260906124934 | 67 | 270 | 14.0 | 17.0 | 0.00 | 0.00 | 0.00 | 64 | 1037.5 |
| 20260906124833 | 67 | 270 | 9.0 | 17.0 | 0.00 | 0.00 | 0.00 | 64 | 1015.3 |
| 20260906124434 | 66 | 270 | 14.0 | 21.0 | 0.00 | 0.00 | 0.00 | 64 | 1037.5 |
| 20260906123934 | 66 | 270 | 10.0 | 23.0 | 0.00 | 0.00 | 0.00 | 64 | 1031.1 |
| 20260906123434 | 67 | 270 | 13.0 | 24.0 | 0.00 | 0.00 | 0.00 | 63 | 1015.4 |
| 20260906122934 | 68 | 270 | 15.0 | 29.0 | 0.00 | 0.00 | 0.00 | 61 | 1031.2 |
| 20260906122434 | 68 | 270 | 17.0 | 20.0 | 0.00 | 0.00 | 0.00 | 59 | 1031.2 |
| 20260906121934 | 69 | 180 | 13.0 | 21.0 | 0.00 | 0.00 | 0.00 | 56 | 1031.2 |
| 20260906121533 | 70 | 270 | 14.0 | 25.0 | 0.00 | 0.00 | 0.00 | 55 | 1028.0 |
| 20260906121434 | 70 | 292 | 14.0 | 25.0 | 0.00 | 0.00 | 0.00 | 55 | 1034.3 |
| 20260906120934 | 69 | 270 | 8.0 | 19.0 | 0.00 | 0.00 | 0.00 | 58 | 1018.6 |
| 20260906120434 | 69 | 270 | 11.0 | 23.0 | 0.00 | 0.00 | 0.00 | 59 | 1028.0 |
| 20260906115934 | 68 | 270 | 14.0 | 20.0 | 0.00 | 0.00 | 0.00 | 60 | 1012.2 |
| 20260906115434 | 67 | 292 | 13.0 | 20.0 | 0.00 | 0.00 | 0.00 | 63 | 1005.8 |
| 20260906114934 | 66 | 247 | 10.0 | 23.0 | 0.00 | 0.00 | 0.00 | 64 | 1005.8 |
| 20260906114434 | 66 | 270 | 23.0 | 23.0 | 0.00 | 0.00 | 0.00 | 64 | 1015.3 |
| 20260906114233 | 66 | 270 | 16.0 | 17.0 | 0.00 | 0.00 | 0.00 | 64 | 1005.8 |
| 20260906113934 | 66 | 247 | 8.0 | 20.0 | 0.00 | 0.00 | 0.00 | 63 | 980.5 |
| 20260906113435 | 66 | 315 | 20.0 | 21.0 | 0.00 | 0.00 | 0.00 | 61 | 990.0 |
| 20260906112934 | 67 | 270 | 21.0 | 21.0 | 0.00 | 0.00 | 0.00 | 59 | 1005.9 |
| 20260906112434 | 68 | 292 | 13.0 | 22.0 | 0.00 | 0.00 | 0.00 | 58 | 993.1 |
| 20260906111934 | 68 | 270 | 7.0 | 16.0 | 0.00 | 0.00 | 0.00 | 61 | 993.1 |
| 20260906111434 | 67 | 292 | 14.0 | 23.0 | 0.00 | 0.00 | 0.00 | 61 | 990.0 |
| 20260906110933 | 67 | 270 | 15.0 | 27.0 | 0.00 | 0.00 | 0.00 | 63 | 977.2 |
| 20260906110434 | 66 | 292 | 15.0 | 21.0 | 0.00 | 0.00 | 0.00 | 62 | 993.1 |
| 20260906105935 | 66 | 292 | 19.0 | 28.0 | 0.00 | 0.00 | 0.00 | 61 | 990.0 |
| 20260906105434 | 66 | 292 | 14.0 | 22.0 | 0.00 | 0.00 | 0.00 | 64 | 986.8 |
| 20260906104934 | 65 | 270 | 12.0 | 23.0 | 0.00 | 0.00 | 0.00 | 67 | 990.0 |
| 20260906104434 | 64 | 270 | 11.0 | 19.0 | 0.00 | 0.00 | 0.00 | 70 | 986.8 |
| 20260906103934 | 63 | 270 | 16.0 | 18.0 | 0.00 | 0.00 | 0.00 | 71 | 980.4 |
| 20260906103633 | 63 | 270 | 6.0 | 23.0 | 0.00 | 0.00 | 0.00 | 72 | 996.3 |
| 20260906103434 | 63 | 292 | 13.0 | 23.0 | 0.00 | 0.00 | 0.00 | 71 | 970.9 |
| 20260906102934 | 64 | 270 | 10.0 | 22.0 | 0.00 | 0.00 | 0.00 | 69 | 977.2 |
| 20260906102434 | 65 | 247 | 7.0 | 21.0 | 0.00 | 0.00 | 0.00 | 66 | 970.9 |
| 20260906101934 | 65 | 180 | 16.0 | 16.0 | 0.00 | 0.00 | 0.00 | 68 | 977.2 |
| 20260906101434 | 64 | 270 | 15.0 | 18.0 | 0.00 | 0.00 | 0.00 | 66 | 961.3 |
| 20260906100934 | 64 | 315 | 17.0 | 27.0 | 0.00 | 0.00 | 0.00 | 67 | 983.6 |
| 20260906100434 | 64 | 315 | 18.0 | 33.0 | 0.00 | 0.00 | 0.00 | 68 | 961.3 |
| 20260906100333 | 64 | 270 | 9.0 | 21.0 | 0.00 | 0.00 | 0.00 | 67 | 974.1 |
| 20260906095934 | 65 | 292 | 12.0 | 23.0 | 0.00 | 0.00 | 0.00 | 67 | 964.5 |
| 20260906095434 | 65 | 292 | 18.0 | 21.0 | 0.00 | 0.00 | 0.00 | 69 | 980.4 |
| 20260906094934 | 64 | 315 | 14.0 | 23.0 | 0.00 | 0.00 | 0.00 | 70 | 974.0 |
| 20260906094434 | 64 | 292 | 11.0 | 18.0 | 0.00 | 0.00 | 0.00 | 70 | 996.4 |
| 20260906093934 | 64 | 292 | 20.0 | 22.0 | 0.00 | 0.00 | 0.00 | 70 | 986.8 |
| 20260906093435 | 64 | 292 | 14.0 | 22.0 | 0.00 | 0.00 | 0.00 | 70 | 993.1 |
| 20260906093034 | 64 | 270 | 14.0 | 23.0 | 0.00 | 0.00 | 0.00 | 71 | 1009.0 |
| 20260906092935 | 64 | 270 | 20.0 | 23.0 | 0.00 | 0.00 | 0.00 | 70 | 999.5 |
| 20260906092434 | 64 | 270 | 15.0 | 23.0 | 0.00 | 0.00 | 0.00 | 72 | 983.6 |
| 20260906091934 | 63 | 247 | 15.0 | 18.0 | 0.00 | 0.00 | 0.00 | 72 | 993.2 |
| 20260906091435 | 63 | 270 | 15.0 | 23.0 | 0.00 | 0.00 | 0.00 | 73 | 999.5 |
| 20260906090935 | 62 | 315 | 7.0 | 19.0 | 0.00 | 0.00 | 0.00 | 75 | 1005.9 |
| 20260906090434 | 62 | 270 | 7.0 | 19.0 | 0.00 | 0.00 | 0.00 | 75 | 999.5 |
| 20260906085935 | 61 | 292 | 8.0 | 15.0 | 0.00 | 0.00 | 0.00 | 77 | 1021.7 |
| 20260906085734 | 61 | 270 | 15.0 | 22.0 | 0.00 | 0.00 | 0.00 | 77 | 999.5 |
| 20260906085435 | 61 | 292 | 7.0 | 22.0 | 0.00 | 0.00 | 0.00 | 77 | 1002.7 |
| 20260906084935 | 61 | 270 | 8.0 | 15.0 | 0.00 | 0.00 | 0.00 | 78 | 996.3 |
| 20260906084435 | 60 | 270 | 9.0 | 21.0 | 0.00 | 0.00 | 0.00 | 80 | 1021.7 |
| 20260906083435 | 59 | 270 | 6.0 | 18.0 | 0.00 | 0.00 | 0.00 | 82 | 1024.9 |
| 20260906082935 | 59 | 270 | 10.0 | 22.0 | 0.00 | 0.00 | 0.00 | 82 | 1058.8 |
| 20260906082434 | 58 | 270 | 3.0 | 15.0 | 0.00 | 0.00 | 0.00 | 82 | 1064.8 |
| 20260906081935 | 59 | 270 | 11.0 | 19.0 | 0.00 | 0.00 | 0.00 | 82 | 1040.6 |
| 20260906081435 | 58 | 270 | 6.0 | 19.0 | 0.00 | 0.00 | 0.00 | 83 | 1034.3 |
| 20260906080935 | 58 | 270 | 7.0 | 19.0 | 0.00 | 0.00 | 0.00 | 84 | 1034.3 |
| 20260906080435 | 58 | 292 | 11.0 | 19.0 | 0.00 | 0.00 | 0.00 | 85 | 1028.0 |
| 20260906075935 | 57 | 292 | 13.0 | 15.0 | 0.00 | 0.00 | 0.00 | 84 | 1034.3 |
| 20260906075435 | 57 | 270 | 8.0 | 17.0 | 0.00 | 0.00 | 0.00 | 84 | 1060.5 |
| 20260906075134 | 57 | 292 | 8.0 | 20.0 | 0.00 | 0.00 | 0.00 | 83 | 1034.3 |
| 20260906074935 | 57 | 270 | 8.0 | 20.0 | 0.00 | 0.00 | 0.00 | 83 | 1050.1 |
| 20260906074436 | 58 | 270 | 8.0 | 18.0 | 0.00 | 0.00 | 0.00 | 82 | 1028.0 |
| 20260906073935 | 58 | 247 | 11.0 | 21.0 | 0.00 | 0.00 | 0.00 | 81 | 1036.1 |
| 20260906073435 | 58 | 270 | 11.0 | 28.0 | 0.00 | 0.00 | 0.00 | 79 | 1054.4 |
| 20260906072935 | 60 | 270 | 25.0 | 25.0 | 0.00 | 0.00 | 0.00 | 76 | 1018.5 |
| 20260906072435 | 60 | 292 | 6.0 | 21.0 | 0.00 | 0.00 | 0.00 | 77 | 1039.2 |
| 20260906071935 | 59 | 157 | 4.0 | 19.0 | 0.00 | 0.00 | 0.00 | 78 | 1053.2 |
| 20260906071834 | 59 | 225 | 8.0 | 19.0 | 0.00 | 0.00 | 0.00 | 78 | 1031.1 |
| 20260906071436 | 59 | 292 | 12.0 | 22.0 | 0.00 | 0.00 | 0.00 | 77 | 1024.8 |
| 20260906071050 | 60 | 270 | 9.0 | 17.0 | 0.00 | 0.00 | 0.00 | 76 | 1049.6 |
| 20260906070935 | 60 | 270 | 9.0 | 17.0 | 0.00 | 0.00 | 0.00 | 76 | 1049.6 |
| 20260906070435 | 60 | 247 | 18.0 | 19.0 | 0.00 | 0.00 | 0.00 | 76 | 1040.6 |
| 20260906065935 | 59 | 270 | 18.0 | 19.0 | 0.00 | 0.00 | 0.00 | 77 | 1062.3 |
| 20260906065435 | 59 | 247 | 17.0 | 20.0 | 0.00 | 0.00 | 0.00 | 77 | 1028.0 |
| 20260906064935 | 59 | 247 | 5.0 | 17.0 | 0.00 | 0.00 | 0.00 | 77 | 1029.4 |
| 20260906064534 | 58 | 247 | 7.0 | 22.0 | 0.00 | 0.00 | 0.00 | 77 | 1037.5 |
| 20260906064435 | 58 | 270 | 10.0 | 22.0 | 0.00 | 0.00 | 0.00 | 77 | 1034.3 |
| 20260906063935 | 58 | 270 | 17.0 | 30.0 | 0.00 | 0.00 | 0.00 | 77 | 1040.6 |
| 20260906063435 | 59 | 247 | 8.0 | 21.0 | 0.00 | 0.00 | 0.00 | 76 | 1037.5 |
| 20260906062935 | 59 | 270 | 12.0 | 26.0 | 0.00 | 0.00 | 0.00 | 75 | 1037.4 |
| 20260906062435 | 60 | 247 | 21.0 | 24.0 | 0.00 | 0.00 | 0.00 | 74 | 1034.3 |
| 20260906061935 | 60 | 292 | 13.0 | 21.0 | 0.00 | 0.00 | 0.00 | 74 | 1028.0 |
| 20260906061435 | 60 | 270 | 12.0 | 14.0 | 0.00 | 0.00 | 0.00 | 76 | 1021.7 |
| 20260906061234 | 59 | 225 | 8.0 | 15.0 | 0.00 | 0.00 | 0.00 | 76 | 1031.2 |
| 20260906060935 | 59 | 270 | 8.0 | 19.0 | 0.00 | 0.00 | 0.00 | 75 | 1046.9 |
| 20260906060435 | 59 | 247 | 11.0 | 22.0 | 0.00 | 0.00 | 0.00 | 75 | 1013.6 |
| 20260906055935 | 58 | 270 | 12.0 | 28.0 | 0.00 | 0.00 | 0.00 | 75 | 1034.3 |
| 20260906055435 | 58 | 270 | 23.0 | 26.0 | 0.00 | 0.00 | 0.00 | 76 | 1034.3 |
| 20260906054935 | 58 | 315 | 6.0 | 28.0 | 0.00 | 0.00 | 0.00 | 76 | 1037.5 |
| 20260906054435 | 58 | 270 | 15.0 | 19.0 | 0.00 | 0.00 | 0.00 | 77 | 1018.5 |
| 20260906053934 | 58 | 247 | 19.0 | 21.0 | 0.00 | 0.00 | 0.00 | 77 | 1032.3 |
| 20260906053435 | 58 | 270 | 20.0 | 20.0 | 0.00 | 0.00 | 0.00 | 77 | 1032.4 |
| 20260906052935 | 58 | 247 | 11.0 | 23.0 | 0.00 | 0.00 | 0.00 | 77 | 1009.0 |
| 20260906052435 | 58 | 270 | 10.0 | 20.0 | 0.00 | 0.00 | 0.00 | 77 | 1015.3 |
| 20260906051935 | 58 | 270 | 16.0 | 19.0 | 0.00 | 0.00 | 0.00 | 78 | 1046.9 |
| 20260906051435 | 58 | 270 | 18.0 | 21.0 | 0.00 | 0.00 | 0.00 | 78 | 1040.6 |
| 20260906050935 | 58 | 270 | 21.0 | 26.0 | 0.00 | 0.00 | 0.00 | 78 | 1031.2 |
| 20260906050634 | 57 | 225 | 11.0 | 21.0 | 0.00 | 0.00 | 0.00 | 78 | 1060.6 |
| 20260906050435 | 58 | 270 | 4.0 | 25.0 | 0.00 | 0.00 | 0.00 | 78 | 1028.0 |
| 20260906045935 | 58 | 225 | 17.0 | 19.0 | 0.00 | 0.00 | 0.00 | 78 | 1040.6 |
| 20260906045435 | 58 | 270 | 18.0 | 25.0 | 0.00 | 0.00 | 0.00 | 79 | 1031.1 |
| 20260906044935 | 58 | 247 | 10.0 | 18.0 | 0.00 | 0.00 | 0.00 | 79 | 1037.3 |
| 20260906044435 | 57 | 270 | 13.0 | 20.0 | 0.00 | 0.00 | 0.00 | 79 | 1037.3 |
| 20260906043935 | 57 | 270 | 15.0 | 18.0 | 0.00 | 0.00 | 0.00 | 79 | 1032.9 |
| 20260906043435 | 57 | 270 | 17.0 | 26.0 | 0.00 | 0.00 | 0.00 | 79 | 1012.2 |
| 20260906043334 | 57 | 247 | 13.0 | 26.0 | 0.00 | 0.00 | 0.00 | 79 | 1038.0 |
| 20260906042935 | 57 | 247 | 5.0 | 19.0 | 0.00 | 0.00 | 0.00 | 79 | 1021.7 |
| 20260906042435 | 57 | 247 | 6.0 | 17.0 | 0.00 | 0.00 | 0.00 | 79 | 1037.4 |
| 20260906041935 | 57 | 90 | 5.0 | 17.0 | 0.00 | 0.00 | 0.00 | 80 | 1045.5 |
| 20260906041435 | 57 | 270 | 10.0 | 17.0 | 0.00 | 0.00 | 0.00 | 80 | 1040.6 |
| 20260906040935 | 57 | 225 | 6.0 | 21.0 | 0.00 | 0.00 | 0.00 | 80 | 1075.5 |
| 20260906040435 | 57 | 270 | 14.0 | 19.0 | 0.00 | 0.00 | 0.00 | 80 | 1031.2 |
| 20260906040034 | 57 | 270 | 11.0 | 21.0 | 0.00 | 0.00 | 0.00 | 80 | 991.6 |
| 20260906035935 | 57 | 270 | 17.0 | 21.0 | 0.00 | 0.00 | 0.00 | 80 | 1037.5 |
| 20260906035435 | 57 | 270 | 16.0 | 19.0 | 0.00 | 0.00 | 0.00 | 80 | 1070.9 |
| 20260906034935 | 57 | 247 | 12.0 | 17.0 | 0.00 | 0.00 | 0.00 | 80 | 1050.3 |
| 20260906034435 | 57 | 270 | 14.0 | 27.0 | 0.00 | 0.00 | 0.00 | 80 | 1011.4 |
| 20260906033935 | 57 | 292 | 18.0 | 23.0 | 0.00 | 0.00 | 0.00 | 81 | 1064.4 |
| 20260906033435 | 57 | 292 | 6.0 | 20.0 | 0.00 | 0.00 | 0.00 | 81 | 1042.1 |
| 20260906032935 | 57 | 270 | 11.0 | 17.0 | 0.00 | 0.00 | 0.00 | 81 | 1002.4 |
| 20260906032734 | 57 | 270 | 8.0 | 17.0 | 0.00 | 0.00 | 0.00 | 81 | 1053.4 |
| 20260906032435 | 57 | 270 | 10.0 | 24.0 | 0.00 | 0.00 | 0.00 | 81 | 1057.2 |
| 20260906031935 | 57 | 270 | 15.0 | 25.0 | 0.00 | 0.00 | 0.00 | 81 | 1040.8 |
| 20260906031435 | 57 | 270 | 10.0 | 19.0 | 0.00 | 0.00 | 0.00 | 81 | 1045.7 |
| 20260906030935 | 57 | 247 | 6.0 | 18.0 | 0.00 | 0.00 | 0.00 | 81 | 1060.4 |
| 20260906030435 | 57 | 270 | 12.0 | 17.0 | 0.00 | 0.00 | 0.00 | 81 | 1061.3 |
| 20260906025935 | 57 | 270 | 10.0 | 17.0 | 0.00 | 0.02 | 0.00 | 81 | 1046.4 |
| 20260906025434 | 57 | 270 | 11.0 | 15.0 | 0.00 | 0.02 | 0.00 | 81 | 1055.6 |
| 20260906024935 | 57 | 270 | 8.0 | 18.0 | 0.00 | 0.02 | 0.00 | 81 | 1039.0 |
| 20260906024435 | 57 | 292 | 10.0 | 21.0 | 0.00 | 0.02 | 0.00 | 81 | 1075.2 |
| 20260906023935 | 57 | 202 | 6.0 | 21.0 | 0.00 | 0.02 | 0.00 | 81 | 1057.9 |
| 20260906023435 | 57 | 225 | 10.0 | 19.0 | 0.00 | 0.02 | 0.00 | 81 | 1068.4 |
| 20260906022935 | 57 | 247 | 6.0 | 19.0 | 0.00 | 0.02 | 0.00 | 81 | 1085.0 |
| 20260906022435 | 58 | 270 | 18.0 | 19.0 | 0.00 | 0.02 | 0.00 | 81 | 1047.0 |
| 20260906022134 | 58 | 270 | 19.0 | 19.0 | 0.00 | 0.02 | 0.00 | 81 | 1022.1 |
| 20260906021935 | 58 | 292 | 14.0 | 21.0 | 0.00 | 0.02 | 0.00 | 81 | 1074.9 |
| 20260906021435 | 58 | 225 | 8.0 | 20.0 | 0.00 | 0.02 | 0.00 | 81 | 1062.3 |
| 20260906020935 | 57 | 270 | 3.0 | 20.0 | 0.00 | 0.02 | 0.00 | 81 | 1053.8 |
| 20260906020435 | 57 | 270 | 15.0 | 19.0 | 0.00 | 0.02 | 0.00 | 81 | 1053.0 |
| 20260906015935 | 58 | 292 | 2.0 | 14.0 | 0.00 | 0.02 | 0.00 | 81 | 1043.7 |
| 20260906015435 | 58 | 270 | 14.0 | 19.0 | 0.00 | 0.02 | 0.00 | 81 | 1034.3 |
| 20260906014935 | 57 | 202 | 19.0 | 23.0 | 0.00 | 0.02 | 0.00 | 82 | 1061.9 |
| 20260906014834 | 58 | 292 | 12.0 | 20.0 | 0.00 | 0.02 | 0.00 | 82 | 1067.4 |
| 20260906014435 | 58 | 247 | 20.0 | 20.0 | 0.00 | 0.02 | 0.00 | 82 | 1063.9 |
| 20260906013935 | 58 | 270 | 13.0 | 14.0 | 0.00 | 0.02 | 0.00 | 82 | 1050.6 |
| 20260906013435 | 58 | 270 | 6.0 | 19.0 | 0.00 | 0.02 | 0.00 | 82 | 1063.1 |
| 20260906012935 | 58 | 270 | 19.0 | 19.0 | 0.00 | 0.02 | 0.00 | 82 | 1033.8 |
| 20260906012435 | 58 | 270 | 7.0 | 15.0 | 0.00 | 0.02 | 0.00 | 82 | 1043.8 |
| 20260906011935 | 58 | 292 | 11.0 | 17.0 | 0.00 | 0.02 | 0.00 | 82 | 1060.4 |
| 20260906011534 | 58 | 270 | 17.0 | 17.0 | 0.00 | 0.02 | 0.00 | 82 | 1053.7 |
| 20260906011435 | 58 | 247 | 11.0 | 14.0 | 0.00 | 0.02 | 0.00 | 82 | 1062.3 |
| 20260906010935 | 58 | 292 | 9.0 | 14.0 | 0.00 | 0.02 | 0.00 | 82 | 1031.9 |
| 20260906010435 | 58 | 247 | 12.0 | 12.0 | 0.00 | 0.02 | 0.00 | 82 | 1062.4 |
| 20260906005935 | 58 | 225 | 12.0 | 17.0 | 0.00 | 0.02 | 0.00 | 82 | 1028.8 |
| 20260906005436 | 58 | 225 | 10.0 | 15.0 | 0.00 | 0.02 | 0.00 | 82 | 1061.4 |
| 20260906004935 | 58 | 247 | 7.0 | 15.0 | 0.00 | 0.02 | 0.00 | 82 | 1061.1 |
| 20260906004435 | 58 | 247 | 12.0 | 15.0 | 0.00 | 0.02 | 0.00 | 82 | 1061.3 |
| 20260906004234 | 57 | 225 | 11.0 | 15.0 | 0.00 | 0.02 | 0.00 | 82 | 1052.6 |
| 20260906003935 | 57 | 270 | 11.0 | 15.0 | 0.00 | 0.02 | 0.00 | 83 | 1055.0 |
| 20260906003436 | 57 | 292 | 12.0 | 13.0 | 0.00 | 0.02 | 0.00 | 83 | 1043.8 |
| 20260906002935 | 57 | 225 | 8.0 | 16.0 | 0.00 | 0.02 | 0.00 | 83 | 1056.4 |
| 20260906002436 | 57 | 270 | 12.0 | 14.0 | 0.00 | 0.02 | 0.00 | 83 | 1062.2 |
| 20260906001935 | 57 | 270 | 3.0 | 11.0 | 0.00 | 0.02 | 0.00 | 83 | 1066.4 |
| 20260906001435 | 57 | 270 | 4.0 | 10.0 | 0.00 | 0.02 | 0.00 | 83 | 1074.0 |
| 20260906000934 | 57 | 270 | 4.0 | 14.0 | 0.00 | 0.02 | 0.00 | 82 | 1031.1 |
| 20260906000435 | 57 | 270 | 6.0 | 12.0 | 0.00 | 0.02 | 0.00 | 82 | 1046.9 |
| 20260905235935 | 57 | 292 | 10.0 | 17.0 | 0.00 | 0.02 | 0.00 | 82 | 1077.6 |
| 20260905235435 | 57 | 270 | 11.0 | 14.0 | 0.00 | 0.02 | 0.00 | 82 | 1032.2 |
| 20260905234936 | 57 | 202 | 5.0 | 16.0 | 0.00 | 0.02 | 0.00 | 82 | 1053.2 |